Hannover, Germany

4:28 AM CEST on September 22, 2017 (GMT +0200)
Hannover

Weather History for EDDV - July, 2017

Change the Weather History Date:

Monday, July 17, 2017

  Actual Average Record
Temperature  
Mean Temperature 64 °F -  
Max Temperature 71 °F 72 °F 89 °F (2015)
Min Temperature 57 °F 53 °F 46 °F (1996)
Degree Days  
Heating Degree Days 1    
Growing Degree Days 14 (Base 50)    
Moisture  
Dew Point 56 °F    
Average Humidity 76    
Maximum Humidity 100    
Minimum Humidity 46    
Precipitation  
Precipitation 0.00 in 0.08 in - ()
Sea Level Pressure  
Sea Level Pressure 30.17 in    
Wind  
Wind Speed 5 mph ()    
Max Wind Speed 10 mph    
Max Gust Speed -    
Visibility 6.0 miles    
Events Rain    
Averages and records for this station are not official NWS values.
T = Trace of Precipitation, MM = Missing Value Source: Averaged Metar Reports

Daily Weather History Graph

Daily Weather History Graph

Search for Another Location

Airport or City:

Trip Planner

Search our weather history database for the weather conditions in past years. The results will help you decide how hot, cold, wet, or windy it might be!

Date:

Astronomy

Jul. 17, 2017 Rise Set
Actual Time 5:19 AM CEST 9:34 PM CEST
Civil Twilight 4:33 AM CEST 10:20 PM CEST
Nautical Twilight 3:25 AM CEST 11:27 PM CEST
Astronomical Twilight 1:59 AM CEST 12:54 AM CEST
Moon 12:56 AM CEST (7/17) 2:36 PM CEST (7/17)
Length of Visible Light 17h 46m
Length of Day
16h 15m
Last Quarter, 43% of the Moon is Illuminated
Jul 17
Last Quarter
Jul 23
New
Jul 30
First Quarter
Aug 7
Full
Aug 15
Last Quarter

Hourly Weather History & Observations

Time (CEST) Temp. Dew Point Humidity Pressure Visibility Wind Dir Wind Speed Gust Speed Precip Events Conditions
12:20 AM 62.6 °F 60.8 °F 94% 30.15 in 6.2 mi WNW 3.5 mph - N/A   Mostly Cloudy
12:50 AM 62.6 °F 60.8 °F 94% 30.15 in 6.2 mi West 3.5 mph - N/A   Mostly Cloudy
1:05 AM 62.6 °F 60.8 °F 94% 30.15 in 6.2 mi West 4.6 mph - N/A   Mostly Cloudy
1:20 AM 62.6 °F 60.8 °F 94% 30.15 in 6.2 mi WNW 4.6 mph - N/A   Mostly Cloudy
1:50 AM 62.6 °F 60.8 °F 94% 30.15 in 6.2 mi WNW 4.6 mph - N/A   Mostly Cloudy
1:53 AM 62.6 °F 60.8 °F 94% 30.15 in 6.2 mi WNW 4.6 mph - N/A   Mostly Cloudy
1:56 AM 62.6 °F 60.8 °F 94% 30.15 in 6.2 mi WNW 4.6 mph - N/A   Mostly Cloudy
2:20 AM 62.6 °F 60.8 °F 94% 30.15 in 6.2 mi West 4.6 mph - N/A   Mostly Cloudy
2:50 AM 62.6 °F 60.8 °F 94% 30.15 in 6.2 mi West 3.5 mph - N/A   Mostly Cloudy
3:20 AM 62.6 °F 60.8 °F 94% 30.15 in 6.2 mi West 3.5 mph - N/A   Mostly Cloudy
3:50 AM 62.6 °F 60.8 °F 94% 30.15 in 6.2 mi WNW 3.5 mph - N/A   Mostly Cloudy
4:20 AM 62.6 °F 60.8 °F 94% 30.15 in 6.2 mi WNW 4.6 mph - N/A   Mostly Cloudy
4:50 AM 62.6 °F 60.8 °F 94% 30.15 in 6.2 mi NW 3.5 mph - N/A   Mostly Cloudy
5:20 AM 62.6 °F 60.8 °F 94% 30.15 in 6.2 mi WNW 3.5 mph - N/A Rain Light Rain
5:30 AM 60.8 °F 60.8 °F 100% 30.15 in 3.7 mi NW 6.9 mph - N/A Rain Light Rain
5:50 AM 60.8 °F 59.0 °F 94% 30.15 in - NNW 6.9 mph - N/A   Light Drizzle
6:09 AM 59.0 °F 59.0 °F 100% 30.15 in 3.1 mi North 5.8 mph - N/A   Light Drizzle
6:20 AM 59.0 °F 59.0 °F 100% 30.15 in 5.6 mi North 4.6 mph - N/A   Mostly Cloudy
6:50 AM 60.8 °F 59.0 °F 94% 30.15 in 6.2 mi Variable 2.3 mph - N/A   Mostly Cloudy
7:02 AM 60.8 °F 59.0 °F 94% 30.15 in 6.2 mi North 3.5 mph - N/A   Mostly Cloudy
7:20 AM 60.8 °F 59.0 °F 94% 30.15 in 6.2 mi North 3.5 mph - N/A   Mostly Cloudy
7:50 AM 60.8 °F 59.0 °F 94% 30.18 in 6.2 mi North 2.3 mph - N/A   Mostly Cloudy
8:06 AM 60.8 °F 59.0 °F 94% 30.18 in 6.2 mi NNW 5.8 mph - N/A   Mostly Cloudy
8:20 AM 60.8 °F 57.2 °F 88% 30.18 in 6.2 mi NNW 5.8 mph - N/A   Mostly Cloudy
8:50 AM 62.6 °F 57.2 °F 82% 30.18 in 6.2 mi NNW 5.8 mph - N/A   Mostly Cloudy
9:20 AM 62.6 °F 57.2 °F 82% 30.18 in 6.2 mi NNW 4.6 mph - N/A   Scattered Clouds
9:50 AM 64.4 °F 55.4 °F 73% 30.18 in 6.2 mi NNW 4.6 mph - N/A   Scattered Clouds
10:20 AM 64.4 °F 53.6 °F 68% 30.18 in 6.2 mi NW 5.8 mph - N/A   Scattered Clouds
10:50 AM 64.4 °F 53.6 °F 68% 30.18 in 6.2 mi NW 5.8 mph - N/A   Scattered Clouds
11:20 AM 66.2 °F 51.8 °F 60% 30.18 in 6.2 mi NW 6.9 mph - N/A   Scattered Clouds
11:50 AM 66.2 °F 51.8 °F 60% 30.18 in 6.2 mi NW 6.9 mph - N/A   Scattered Clouds
12:20 PM 68.0 °F 51.8 °F 56% 30.18 in 6.2 mi NNW 8.1 mph - N/A   Scattered Clouds
12:50 PM 68.0 °F 51.8 °F 56% 30.18 in 6.2 mi WNW 10.4 mph - N/A   Scattered Clouds
1:20 PM 69.8 °F 50.0 °F 49% 30.18 in 6.2 mi NW 8.1 mph - N/A   Partly Cloudy
1:50 PM 69.8 °F 51.8 °F 53% 30.18 in 6.2 mi NNW 8.1 mph - N/A   Partly Cloudy
2:20 PM 69.8 °F 51.8 °F 53% 30.18 in 6.2 mi NNW 6.9 mph - N/A   Partly Cloudy
2:50 PM 69.8 °F 51.8 °F 53% 30.18 in 6.2 mi NNW 8.1 mph - N/A   Partly Cloudy
3:20 PM 71.6 °F 51.8 °F 50% 30.18 in 6.2 mi WNW 9.2 mph - N/A   Partly Cloudy
3:50 PM 71.6 °F 50.0 °F 46% 30.18 in 6.2 mi North 8.1 mph - N/A   Scattered Clouds
4:20 PM 71.6 °F 51.8 °F 50% 30.18 in - NW 9.2 mph - N/A   Clear
4:50 PM 71.6 °F 50.0 °F 46% 30.18 in - NNW 8.1 mph - N/A   Clear
5:20 PM 71.6 °F 50.0 °F 46% 30.18 in - North 9.2 mph - N/A   Clear
5:50 PM 71.6 °F 51.8 °F 50% 30.15 in - NNW 9.2 mph - N/A   Clear
6:20 PM 71.6 °F 51.8 °F 50% 30.15 in - North 9.2 mph - N/A   Clear
6:50 PM 69.8 °F 51.8 °F 53% 30.15 in - North 9.2 mph - N/A   Clear
7:20 PM 69.8 °F 51.8 °F 53% 30.18 in - North 5.8 mph - N/A   Clear
7:50 PM 69.8 °F 51.8 °F 53% 30.18 in - North 5.8 mph - N/A   Clear
8:20 PM 68.0 °F 51.8 °F 56% 30.18 in - NNW 4.6 mph - N/A   Clear
8:50 PM 66.2 °F 51.8 °F 60% 30.18 in - North 5.8 mph - N/A   Clear
9:20 PM 64.4 °F 51.8 °F 64% 30.18 in - North 4.6 mph - N/A   Clear
9:50 PM 62.6 °F 53.6 °F 72% 30.18 in - North 3.5 mph - N/A   Clear
10:20 PM 59.0 °F 53.6 °F 82% 30.18 in - NW 2.3 mph - N/A   Clear
10:50 PM 59.0 °F 53.6 °F 82% 30.18 in - Variable 2.3 mph - N/A   Clear
11:20 PM 57.2 °F 51.8 °F 82% 30.18 in - NNW 3.5 mph - N/A   Clear
11:50 PM 57.2 °F 51.8 °F 82% 30.21 in - North 5.8 mph - N/A   Clear